User: anonymous   Login
Location: Elstree
(51.6403°N, 0.2969°W)
Time: 11:29:38
(UTC+00:00)
Language:

Lacrosse 4 Rocket - Orbit

View from above orbital plane
View from above orbital plane
View from above satellite
View from above satellite

Ground track
Ground track

The orbit data is extracted from the following two-line orbital elements,

1 26474U 00047B   21133.59164708  .00000214  00000-0  29327-4 0  9998
2 26474  67.9940 246.8436 0057579 199.2533 160.6435 14.96142665128626
Epoch (UTC): 13 May 2021 14:11:58
Eccentricity: 0.0057579
inclination: 67.9940°
perigee height: 539 km
apogee height: 619 km
right ascension of ascending node: 246.8436°
argument of perigee: 199.2533°
revolutions per day: 14.96142665
mean anomaly at epoch: 160.6435°
orbit number at epoch: 12862

The dashed part of the orbit path shows where the satellite is in the earth's shadow,  

DLR